This is the latest recevied weather packets stored in our database for station/object OM4MO-10. If no packets are shown the sender has not sent any weather packets the latest 10 day(s).
| Time | Temp. | Humidity | Pressure | Rain* | Wind** | Luminosity | Snow |
|---|---|---|---|---|---|---|---|
| 1788259298 | 21.67° C | 79% | 754.7 hPa | - | - | - | - |
| 1788258397 | 21.67° C | 79% | 754.7 hPa | - | - | - | - |
| 1788257496 | 21.11° C | 79% | 1021.1 hPa | - | - | - | - |
| 1788256595 | 21.67° C | 79% | 754.7 hPa | - | - | - | - |
| 1788255694 | 22.78° C | 79% | 1024.4 hPa | - | - | - | - |
| 1788254793 | 21.67° C | 79% | 754.7 hPa | - | - | - | - |
| 1788253892 | 23.33° C | 80% | 1023.4 hPa | - | - | - | - |
| 1788252992 | 22.22° C | 79% | 1023.8 hPa | - | - | - | - |
| 1788252092 | 22.22° C | 79% | 1023.7 hPa | - | - | - | - |
| 1788251192 | 21.67° C | 79% | 1023.9 hPa | - | - | - | - |
| 1788250292 | 21.67° C | 79% | 1022.1 hPa | - | - | - | - |
| 1788249392 | 21.11° C | 79% | 1022 hPa | - | - | - | - |
| 1788248491 | 20.56° C | 79% | 1021.7 hPa | - | - | - | - |
| 1788247591 | 20.56° C | 79% | 1021.6 hPa | - | - | - | - |
| 1788246691 | 20° C | 79% | 1021.5 hPa | - | - | - | - |
| 1788245790 | 182.78° C | 100% | - | - | - | - | - |
| 1788244890 | 21.67° C | 79% | 754.7 hPa | - | - | - | - |
| 1788243989 | 21.67° C | 79% | 754.7 hPa | - | - | - | - |
| 1788243088 | 21.67° C | 79% | 754.7 hPa | - | - | - | - |
| 1788242188 | 15.56° C | 79% | 1020.9 hPa | - | - | - | - |
| 1788241287 | 15° C | 79% | 1021 hPa | - | - | - | - |
| 1788240387 | 21.67° C | 79% | 754.7 hPa | - | - | - | - |
| 1788239486 | 21.67° C | 79% | 754.7 hPa | - | - | - | - |
| 1788238586 | 13.89° C | 79% | 1020.4 hPa | - | - | - | - |
| 1788237686 | 21.67° C | 79% | 754.7 hPa | - | - | - | - |
* Rain since midnight (hover to see other rain measurements)
** Current wind speed in m/s (hover to see current wind gust speed)